Regional Weather Roundup
Issued by NWS

Home | Current Version | Previous Version | Text Only | Print | Product List | Glossary On
Versions: 1 2 3 4 5 6 7 8 9 10 11 12 13 14 15 16 17 18 19 20 21 22 23 24 25 26 27 28 29 30 31 32 33 34 35 36 37 38 39 40 41 42 43 44 45 46 47 48 49 50
000
ASUS43 KBIS 201159
RWRND

NORTH DAKOTA REGIONAL WEATHER ROUNDUP
NATIONAL WEATHER SERVICE BISMARCK ND
600 AM CST SAT DEC 20 2014

NOTE: "FAIR" INDICATES FEW OR NO CLOUDS BELOW 12,000 FEET WITH NO
SIGNIFICANT WEATHER AND/OR OBSTRUCTIONS TO VISIBILITY.


NDZ001>003-009>011-017-201300-
NORTHWEST NORTH DAKOTA

CITY           SKY/WX    TMP DP  RH WIND       PRES   REMARKS
WILLISTON      CLOUDY    16  14  92 CALM      29.84F
6HR MIN TEMP:  10; 6HR MAX TEMP:  17;

MINOT          FOG       22  20  92 SE8       29.90S VSB 1/4 WCI  12
$$

NDZ018>021-031>035-040>046-201300-
SOUTHWEST NORTH DAKOTA

CITY           SKY/WX    TMP DP  RH WIND       PRES   REMARKS
BISMARCK       FOG       16  15  96 E6        29.94S VSB 3/4 WCI   7
6HR MIN TEMP:  15; 6HR MAX TEMP:  16;

GARRISON         N/A     20  18  92 E7        29.89F WCI  11
6HR MIN TEMP:  19; 6HR MAX TEMP:  26;

HETTINGER ARPT CLOUDY    28  23  81 CALM      29.86F
$$

NDZ004>008-012>016-024-026-027-054-201300-
NORTHEAST NORTH DAKOTA

CITY           SKY/WX    TMP DP  RH WIND       PRES   REMARKS
GRAND FORKS    CLOUDY    28  27  96 S6        29.99F FOG
DEVILS LAKE    CLOUDY    21  16  79 S5        29.94R WCI  15
$$

NDZ022-023-025-028>030-036>039-047>053-201300-
SOUTHEAST NORTH DAKOTA

CITY           SKY/WX    TMP DP  RH WIND       PRES   REMARKS
FARGO          CLOUDY    30  27  88 S10       30.02S
6HR MIN TEMP:  30; 6HR MAX TEMP:  32;

JAMESTOWN      FOG       20  16  84 S5        29.96S VSB 1/2 WCI  13
$$



USA.gov is the U.S. government's official web portal to all federal, state and local government web resources and services.